Tracking 29892 objects as of 21-Nov-2024
HD Live streaming from Space Station
objects crossing your sky now

STARLINK-5811

Track STARLINK-5811 now!
10-day predictions
STARLINK-5811 is classified as:


NORAD ID: 55787
Int'l Code: 2023-028AY
Perigee: 577.3 km
Apogee: 581.1 km
Inclination: 70.0 °
Period: 96.1 minutes
Semi major axis: 6950 km
RCS: Unknown
Launch date: March 3, 2023
Source: United States (US)
Launch site: AIR FORCE WESTERN TEST RANGE (AFWTR)
Your satellite tracking list
Your tracking list is empty




NASA's NSSDC Master Catalog

Two Line Element Set (TLE):
1 55787U 23028AY  24325.09752257 -.00000240  00000-0 -12325-4 0  9995
2 55787  69.9996 321.1987 0002786 270.3235  89.7605 14.98330702 95925
Source of the keplerian elements: AFSPC